Regional Weather Roundup
Issued by NWS Albany, NY

Home | Current Version | Previous Version | Graphics & Text | Print | Product List | Glossary Off
Versions: 1 2 3 4 5 6 7 8 9 10 11 12 13 14 15 16 17 18 19 20 21 22 23 24 25 26 27 28 29 30 31 32 33 34 35 36 37 38 39 40 41 42 43 44 45 46 47 48 49 50

000
ASUS41 KALY 051210
RWRALY

NEW YORK STATE HOURLY WEATHER ROUNDUP
NATIONAL WEATHER SERVICE ALBANY NY
800 AM EDT SUN JUL 05 2015

NOTE: "FAIR" INDICATES FEW OR NO CLOUDS BELOW 12,000 FEET WITH NO
SIGNIFICANT WEATHER AND/OR NO OBSTRUCTIONS TO VISIBILITY.

NYZ032-033-038>043-046>054-057>066-NYZ062>081-051300-
EAST


CITY           SKY/WX    TMP DP  RH WIND       PRES   REMARKS
ALBANY         MOSUNNY   64  60  87 S3        30.11R
GLENS FALLS    CLOUDY    61  59  93 CALM      30.10R FOG
POUGHKEEPSIE   MOSUNNY   64  60  87 N3        30.10R FOG
NEWBURGH       SUNNY     59  59 100 CALM      30.12R
MONTGOMERY     SUNNY     66  63  90 CALM      30.11R
WHITE PLAINS   SUNNY     67  61  81 W6        30.10R
ISLIP          PTSUNNY   72  62  71 W6        30.08R
NEW YORK CITY  PTSUNNY   72  60  66 NW5       30.09R
CENTRAL PARK   MOSUNNY   70  59  68 NW5       30.13R
$$

NYZ005>009-017-018-044>046-055-056-051300-
CENTRAL


CITY           SKY/WX    TMP DP  RH WIND       PRES   REMARKS
FULTON         SUNNY     63  58  83 SW3       30.12R
SYRACUSE       MOSUNNY   64  60  87 CALM      30.12R
ROME           SUNNY     61  58  90 CALM      30.14R
ELMIRA         CLOUDY    61  60  97 SW5       30.14R
BINGHAMTON     FOG       58  58 100 W3        30.16R VSB<1/4
MONTICELLO     CLOUDY    61  61 100 W6        30.15R
$$

NYZ026>034-041>043-051300-
NORTH


CITY           SKY/WX    TMP DP  RH WIND       PRES   REMARKS
WATERTOWN      SUNNY     64  58  80 SW6       30.10R HAZE
FORT DRUM      NOT AVBL
MASSENA        SUNNY     63  56  78 SW6       30.08R
SARANAC LAKE   SUNNY     59  57  93 SW8       30.10R
PLATTSBURGH    MOSUNNY   64  63  96 VRB3      30.05R
$$

NYZ001>004-010>016-019>021-051300-
WEST


CITY           SKY/WX    TMP DP  RH WIND       PRES   REMARKS
NIAGARA FALLS  SUNNY     64  61  90 SW5       30.13R
BUFFALO        SUNNY     63  54  72 SW7       30.14R
DUNKIRK        SUNNY     64  54  69 S7        30.14R
JAMESTOWN      SUNNY     55  50  82 CALM      30.18R
WELLSVILLE     SUNNY     58  54  86 MISG      30.20R
ROCHESTER      SUNNY     62  57  83 SW7       30.14R
PENN YAN       SUNNY     62  57  83 SW9       30.14R
$$

             KEY
       WCI = WIND CHILL INDEX
       VSB = VISIBILITY
       HX  = HEAT INDEX
$$


USA.gov is the U.S. government's official web portal to all federal, state and local government web resources and services.